Weather History for Waseca, MN

Change the Weather History Date:

Sunday, October 27, 2013

  Actual Average Record
Temperature  
Mean Temperature 45 °F -  
Max Temperature 62 °F 56 °F 79 °F (1989)
Min Temperature 28 °F 34 °F 14 °F (1951)
Degree Days  
Heating Degree Days 20    
Moisture  
Dew Point 31 °F    
Average Humidity 66    
Maximum Humidity 93    
Minimum Humidity 36    
Precipitation  
Precipitation 0.00 in - - ()
Sea Level Pressure  
Sea Level Pressure 29.94 in    
Wind  
Wind Speed 7 mph (SSW)    
Max Wind Speed 18 mph    
Max Gust Speed 23 mph    
Visibility 10 miles    
Events      
Averages and records for this station are not official NWS values.
T = Trace of Precipitation, MM = Missing Value Source: NWS Daily Summary

Daily Weather History Graph

Daily Weather History Graph

Search for Another Location

Airport:

Trip Planner

Search our weather history database for the weather conditions in past years. The results will help you decide how hot, cold, wet, or windy it might be!

Date:

Astronomy

Oct. 27, 2013 Rise Set
Actual Time 7:44 AM CDT 6:10 PM CDT
Civil Twilight 7:14 AM CDT 6:40 PM CDT
Nautical Twilight 6:40 AM CDT 7:14 PM CDT
Astronomical Twilight 6:07 AM CDT 7:47 PM CDT
Moon 12:28 AM CDT (10/27) 2:33 PM CDT (10/27)
Length of Visible Light 11h 25m
Length of Day
10h 26m
Last Quarter, 43% of the Moon is Illuminated
Oct 27
Last Quarter
Nov 3
New
Nov 9
First Quarter
Nov 17
Full
Nov 25
Last Quarter

Hourly Weather History & Observations

Time (CDT) Temp. Windchill Dew Point Humidity Pressure Visibility Wind Dir Wind Speed Gust Speed Precip Events Conditions
12:13 AM 30.2 °F 26.7 °F 28.4 °F 93% 30.07 in 10.0 mi SSW 3.5 mph - N/A   Clear
12:33 AM 30.2 °F - 26.6 °F 86% 30.07 in 10.0 mi Calm Calm - N/A   Clear
12:53 AM 30.2 °F 25.4 °F 26.6 °F 86% 30.06 in 10.0 mi South 4.6 mph - N/A   Clear
1:13 AM 30.2 °F 26.7 °F 26.6 °F 86% 30.05 in 10.0 mi South 3.5 mph - N/A   Clear
1:33 AM 30.2 °F 26.7 °F 26.6 °F 86% 30.05 in 10.0 mi SSW 3.5 mph - N/A   Clear
1:53 AM 30.2 °F 26.7 °F 26.6 °F 86% 30.04 in 10.0 mi SSW 3.5 mph - N/A   Clear
2:13 AM 28.4 °F 24.6 °F 26.6 °F 93% 30.04 in 10.0 mi SSW 3.5 mph - N/A   Clear
2:33 AM 28.4 °F - 26.6 °F 93% 30.03 in 10.0 mi Calm Calm - N/A   Clear
2:53 AM 28.4 °F 23.3 °F 24.8 °F 86% 30.01 in 10.0 mi South 4.6 mph - N/A   Clear
3:13 AM 28.4 °F 24.6 °F 24.8 °F 86% 30.01 in 10.0 mi South 3.5 mph - N/A   Clear
3:33 AM 28.4 °F 24.6 °F 24.8 °F 86% 30.00 in 10.0 mi South 3.5 mph - N/A   Clear
3:53 AM 28.4 °F 23.3 °F 24.8 °F 86% 30.00 in 10.0 mi South 4.6 mph - N/A   Clear
4:13 AM 28.4 °F 23.3 °F 26.6 °F 93% 29.99 in 10.0 mi South 4.6 mph - N/A   Clear
4:33 AM 28.4 °F 23.3 °F 26.6 °F 93% 29.98 in 10.0 mi South 4.6 mph - N/A   Clear
4:53 AM 30.2 °F 23.4 °F 26.6 °F 86% 29.98 in 10.0 mi South 6.9 mph - N/A   Clear
5:13 AM 30.2 °F 24.3 °F 26.6 °F 86% 29.98 in 10.0 mi South 5.8 mph - N/A   Clear
5:34 AM 30.2 °F 24.3 °F 26.6 °F 86% 29.97 in 10.0 mi South 5.8 mph - N/A   Clear
5:54 AM 30.2 °F 24.3 °F 26.6 °F 86% 29.97 in 10.0 mi South 5.8 mph - N/A   Clear
6:13 AM 30.2 °F 24.3 °F 26.6 °F 86% 29.97 in 10.0 mi South 5.8 mph - N/A   Clear
6:33 AM 30.2 °F 24.3 °F 26.6 °F 86% 29.96 in 10.0 mi South 5.8 mph - N/A   Clear
6:53 AM 30.2 °F 24.3 °F 26.6 °F 86% 29.95 in 10.0 mi South 5.8 mph - N/A   Clear
7:13 AM 30.2 °F 23.4 °F 26.6 °F 86% 29.95 in 10.0 mi South 6.9 mph - N/A   Clear
7:33 AM 30.2 °F 24.3 °F 26.6 °F 86% 29.94 in 10.0 mi South 5.8 mph - N/A   Clear
7:53 AM 30.2 °F 23.4 °F 28.4 °F 93% 29.93 in 10.0 mi South 6.9 mph - N/A   Clear
8:13 AM 32.0 °F 24.2 °F 30.2 °F 93% 29.93 in 10.0 mi South 9.2 mph - N/A   Clear
8:33 AM 33.8 °F 25.8 °F 30.2 °F 87% 29.93 in 10.0 mi SSW 10.4 mph - N/A   Clear
8:53 AM 35.6 °F 26.6 °F 30.2 °F 81% 29.93 in 10.0 mi South 13.8 mph - N/A   Clear
9:14 AM 37.4 °F 28.9 °F 32.0 °F 81% 29.93 in 10.0 mi South 13.8 mph - N/A   Clear
9:33 AM 37.4 °F 29.3 °F 30.2 °F 75% 29.92 in 10.0 mi South 12.7 mph - N/A   Clear
9:53 AM 41.0 °F 33.9 °F 32.0 °F 70% 29.91 in 10.0 mi South 12.7 mph - N/A   Clear
10:14 AM 42.8 °F 35.4 °F 32.0 °F 66% 29.90 in 10.0 mi SSW 15.0 mph 20.7 mph N/A   Clear
10:33 AM 44.6 °F 37.8 °F 32.0 °F 61% 29.89 in 10.0 mi SSW 15.0 mph 20.7 mph N/A   Clear
10:53 AM 46.4 °F 39.2 °F 32.0 °F 57% 29.89 in - SSW 18.4 mph 21.9 mph N/A   Clear
11:14 AM 48.2 °F - 32.0 °F 54% 29.88 in 10.0 mi SSW 15.0 mph - N/A   Clear
11:33 AM 50.0 °F - 32.0 °F 50% 29.88 in 10.0 mi SSW 16.1 mph 23.0 mph N/A   Clear
11:54 AM 53.6 °F - 32.0 °F 44% 29.87 in 10.0 mi South 16.1 mph 23.0 mph N/A   Clear
12:14 PM 53.6 °F - 32.0 °F 44% 29.86 in 10.0 mi SSW 16.1 mph 20.7 mph N/A   Clear
12:33 PM 53.6 °F - 32.0 °F 44% 29.85 in 10.0 mi South 15.0 mph - N/A   Clear
12:53 PM 55.4 °F - 32.0 °F 41% 29.84 in 10.0 mi SSW 13.8 mph - N/A   Clear
1:14 PM 59.0 °F - 33.8 °F 39% 29.83 in 10.0 mi SSW 15.0 mph - N/A   Clear
1:33 PM 59.0 °F - 33.8 °F 39% 29.84 in 10.0 mi SSW 10.4 mph - N/A   Clear
1:53 PM 59.0 °F - 33.8 °F 39% 29.83 in - SSW 9.2 mph - N/A   Clear
2:14 PM 60.8 °F - 33.8 °F 36% 29.83 in - SW 10.4 mph - N/A   Clear
2:33 PM 60.8 °F - 33.8 °F 36% 29.82 in 10.0 mi SSW 9.2 mph - N/A   Clear
2:53 PM 60.8 °F - 33.8 °F 36% 29.82 in - SSW 6.9 mph - N/A   Clear
3:14 PM 62.6 °F - 35.6 °F 37% 29.82 in - SW 8.1 mph - N/A   Clear
3:33 PM 62.6 °F - 35.6 °F 37% 29.82 in - SW 9.2 mph - N/A   Clear
3:53 PM 62.6 °F - 35.6 °F 37% 29.83 in - SW 9.2 mph - N/A   Clear
4:13 PM 62.6 °F - 35.6 °F 37% 29.84 in - West 6.9 mph - N/A   Clear
4:34 PM 62.6 °F - 35.6 °F 37% 29.84 in - WNW 4.6 mph - N/A   Clear
4:53 PM 60.8 °F - 35.6 °F 39% 29.85 in - North 9.2 mph - N/A   Clear
5:14 PM 59.0 °F - 35.6 °F 42% 29.86 in - North 9.2 mph - N/A   Clear
5:34 PM 59.0 °F - 35.6 °F 42% 29.86 in - North 10.4 mph - N/A   Clear
5:53 PM 55.4 °F - 35.6 °F 47% 29.88 in - North 8.1 mph - N/A   Clear
6:13 PM 53.6 °F - 35.6 °F 51% 29.89 in - North 8.1 mph - N/A   Clear
6:34 PM 46.4 °F 41.9 °F 33.8 °F 62% 29.90 in - North 9.2 mph - N/A   Clear
6:53 PM 50.0 °F - 35.6 °F 58% 29.91 in - North 9.2 mph - N/A   Clear
7:14 PM 46.4 °F 41.9 °F 33.8 °F 62% 29.92 in - NNE 9.2 mph - N/A   Clear
7:33 PM 46.4 °F 42.4 °F 33.8 °F 62% 29.93 in - NNE 8.1 mph - N/A   Clear
7:53 PM 48.2 °F - 33.8 °F 58% 29.94 in - North 10.4 mph - N/A   Clear
8:13 PM 46.4 °F 41.9 °F 33.8 °F 62% 29.96 in - North 9.2 mph - N/A   Clear
8:34 PM 46.4 °F 41.9 °F 33.8 °F 62% 29.97 in - North 9.2 mph - N/A   Clear
8:53 PM 44.6 °F 38.8 °F 33.8 °F 66% 29.98 in - North 11.5 mph - N/A   Clear
9:13 PM 46.4 °F 40.4 °F 33.8 °F 62% 29.99 in - North 13.8 mph - N/A   Clear
9:34 PM 44.6 °F 38.1 °F 33.8 °F 66% 30.00 in - NNE 13.8 mph - N/A   Clear
9:53 PM 44.6 °F 37.8 °F 33.8 °F 66% 30.01 in - NNE 15.0 mph - N/A   Clear
10:13 PM 44.6 °F 38.4 °F 33.8 °F 66% 30.03 in - NNE 12.7 mph - N/A   Clear
10:34 PM 44.6 °F 38.4 °F 33.8 °F 66% 30.05 in - NNE 12.7 mph - N/A   Clear
10:53 PM 44.6 °F 37.4 °F 33.8 °F 66% 30.06 in - NNE 16.1 mph 23.0 mph N/A   Clear
11:13 PM 42.8 °F 35.8 °F 32.0 °F 66% 30.07 in - NNE 13.8 mph 19.6 mph N/A   Clear
11:33 PM 42.8 °F 35.1 °F 32.0 °F 66% 30.08 in - NNE 16.1 mph 21.9 mph N/A   Clear
11:53 PM 42.8 °F 35.1 °F 33.8 °F 70% 30.09 in - NNE 16.1 mph 21.9 mph N/A   Clear